CW4824 Weather Reports


Display with metric or nautical units.
time (UTC)temp
F
wind
direction
speed
MPH
gust
MPH
rain 1hr
in
rain 24hr
in
rain mn
in
humidity
%
barometer
mb
20190324211017 53 315 3.0 8.0 0.00 0.00 0.00 60 1016.8
20190324210517 53 157 2.0 7.0 0.00 0.00 0.00 59 1016.8
20190324210016 53 112 2.0 6.0 0.00 0.00 0.00 59 1016.9
20190324205517 53 45 2.0 7.0 0.00 0.00 0.00 57 1016.8
20190324205016 54 292 2.0 6.0 0.00 0.00 0.00 56 1016.8
20190324204516 54 292 3.0 7.0 0.00 0.00 0.00 53 1016.7
20190324204016 54 292 3.0 6.0 0.00 0.00 0.00 53 1016.7
20190324203516 54 292 3.0 8.0 0.00 0.00 0.00 51 1016.7
20190324203016 54 270 2.0 5.0 0.00 0.00 0.00 49 1016.7
20190324202516 54 292 3.0 7.0 0.00 0.00 0.00 48 1016.7
20190324202017 54 270 2.0 8.0 0.00 0.00 0.00 47 1016.7
20190324201516 54 270 3.0 6.0 0.00 0.00 0.00 45 1016.7
20190324201016 54 270 3.0 7.0 0.00 0.00 0.00 45 1016.6
20190324200516 54 270 2.0 3.0 0.00 0.00 0.00 43 1016.5
20190324200018 54 247 2.0 4.0 0.00 0.00 0.00 43 1016.6
20190324195517 54 292 2.0 4.0 0.00 0.00 0.00 41 1016.7
20190324195016 54 270 2.0 7.0 0.00 0.00 0.00 40 1016.8
20190324194516 54 292 2.0 6.0 0.00 0.00 0.00 40 1016.9
20190324194016 55 270 2.0 4.0 0.00 0.00 0.00 41 1017.0
20190324193516 55 270 3.0 6.0 0.00 0.00 0.00 40 1017.1
20190324193016 55 247 2.0 7.0 0.00 0.00 0.00 41 1017.1
20190324192516 54 270 2.0 3.0 0.00 0.00 0.00 41 1017.1
20190324192016 54 292 2.0 4.0 0.00 0.00 0.00 41 1017.1
20190324191516 54 292 2.0 4.0 0.00 0.00 0.00 42 1017.2
20190324191016 54 270 1.0 3.0 0.00 0.00 0.00 43 1017.3
20190324190517 54 0.0 1.0 0.00 0.00 0.00 42 1017.4
20190324190016 54 0.0 0.0 0.00 0.00 0.00 44 1017.5
20190324185516 54 0.0 0.0 0.00 0.00 0.00 45 1017.5
20190324185016 54 0.0 0.0 0.00 0.00 0.00 44 1017.6
20190324184516 54 0.0 0.0 0.00 0.00 0.00 44 1017.6
20190324184016 54 292 1.0 3.0 0.00 0.00 0.00 44 1017.7
20190324183516 54 292 2.0 3.0 0.00 0.00 0.00 44 1017.8
20190324183016 54 292 2.0 3.0 0.00 0.00 0.00 44 1017.9
20190324182516 54 292 2.0 6.0 0.00 0.00 0.00 43 1018.0
20190324182016 54 270 3.0 8.0 0.00 0.00 0.00 44 1018.0
20190324181516 54 292 2.0 6.0 0.00 0.00 0.00 43 1018.2
20190324181016 55 270 2.0 7.0 0.00 0.00 0.00 43 1018.2
20190324180516 55 292 2.0 4.0 0.00 0.00 0.00 43 1018.3
20190324180016 55 270 2.0 6.0 0.00 0.00 0.00 43 1018.2
20190324175516 55 292 2.0 6.0 0.00 0.00 0.00 43 1018.3
20190324175016 55 292 2.0 4.0 0.00 0.00 0.00 43 1018.3
20190324174516 55 292 2.0 4.0 0.00 0.00 0.00 42 1018.4
20190324174016 55 270 3.0 6.0 0.00 0.00 0.00 42 1018.4
20190324173516 55 292 3.0 6.0 0.00 0.00 0.00 43 1018.5
20190324173016 55 292 2.0 4.0 0.00 0.00 0.00 43 1018.6
20190324172516 55 270 2.0 4.0 0.00 0.00 0.00 42 1018.6
20190324172016 55 270 1.0 3.0 0.00 0.00 0.00 43 1018.7
20190324171516 54 292 2.0 3.0 0.00 0.00 0.00 44 1018.7
20190324171016 54 292 2.0 3.0 0.00 0.00 0.00 43 1018.8
20190324170516 54 270 1.0 3.0 0.00 0.00 0.00 44 1018.9
20190324170016 54 135 1.0 3.0 0.00 0.00 0.00 44 1018.9
20190324165519 54 112 1.0 3.0 0.00 0.00 0.00 45 1018.9
20190324165016 54 292 1.0 3.0 0.00 0.00 0.00 45 1019.0
20190324164516 54 135 1.0 3.0 0.00 0.00 0.00 45 1019.1
20190324164016 54 0 1.0 2.0 0.00 0.00 0.00 45 1019.2
20190324163516 53 112 1.0 4.0 0.00 0.00 0.00 45 1019.2
20190324163016 53 135 2.0 6.0 0.00 0.00 0.00 45 1019.2
20190324162516 53 112 2.0 4.0 0.00 0.00 0.00 47 1019.3
20190324162016 53 112 1.0 4.0 0.00 0.00 0.00 47 1019.3
20190324161516 53 112 2.0 4.0 0.00 0.00 0.00 45 1019.3
20190324161016 52 112 2.0 7.0 0.00 0.00 0.00 48 1019.3
20190324160516 51 292 1.0 7.0 0.00 0.00 0.00 52 1019.3
20190324160016 50 292 3.0 6.0 0.00 0.00 0.00 50 1019.4
20190324155516 50 292 1.0 4.0 0.00 0.00 0.00 54 1019.5
20190324155016 49 135 2.0 5.0 0.00 0.00 0.00 57 1019.5
20190324154516 49 270 2.0 4.0 0.00 0.00 0.00 58 1019.5
20190324154016 48 270 2.0 3.0 0.00 0.00 0.00 58 1019.5
20190324153516 48 112 2.0 4.0 0.00 0.00 0.00 57 1019.5
20190324153016 48 135 1.0 6.0 0.00 0.00 0.00 59 1019.5
20190324152516 47 135 2.0 4.0 0.00 0.00 0.00 61 1019.6
20190324152016 47 0.0 2.0 0.00 0.00 0.00 62 1019.5
20190324151516 46 112 2.0 4.0 0.00 0.00 0.00 60 1019.6
20190324151016 45 337 1.0 3.0 0.00 0.00 0.00 65 1019.5
20190324150516 45 135 1.0 5.0 0.00 0.00 0.00 66 1019.6
20190324150016 44 157 1.0 3.0 0.00 0.00 0.00 67 1019.6
20190324145516 43 157 1.0 4.0 0.00 0.00 0.00 70 1019.6
20190324145016 43 135 2.0 3.0 0.00 0.00 0.00 71 1019.5
20190324144516 42 135 1.0 5.0 0.00 0.00 0.00 71 1019.5
20190324144016 42 112 2.0 5.0 0.00 0.00 0.00 72 1019.5
20190324143516 41 112 1.0 3.0 0.00 0.00 0.00 73 1019.5
20190324143015 41 112 1.0 3.0 0.00 0.00 0.00 73 1019.3
20190324142516 40 0.0 0.0 0.00 0.00 0.00 73 1019.2
20190324142016 40 0.0 0.0 0.00 0.00 0.00 73 1019.2
20190324141516 39 0.0 1.0 0.00 0.00 0.00 74 1019.1
20190324141018 39 112 2.0 3.0 0.00 0.00 0.00 76 1019.0
20190324140516 39 0.0 2.0 0.00 0.00 0.00 78 1019.0
20190324140015 38 0.0 0.0 0.00 0.00 0.00 78 1018.9
20190324135516 38 0.0 2.0 0.00 0.00 0.00 78 1019.1
20190324135016 38 0.0 2.0 0.00 0.00 0.00 78 1019.0
20190324134516 38 112 2.0 3.0 0.00 0.00 0.00 78 1019.2
20190324134016 38 292 2.0 3.0 0.00 0.00 0.00 79 1019.3
20190324133516 37 0.0 2.0 0.00 0.00 0.00 79 1019.5
20190324133016 37 0.0 0.0 0.00 0.00 0.00 80 1019.6
20190324132516 37 0.0 2.0 0.00 0.00 0.00 81 1019.7
20190324132015 37 292 1.0 2.0 0.00 0.00 0.00 80 1019.6
20190324131516 37 0.0 1.0 0.00 0.00 0.00 80 1019.7
20190324131015 37 292 1.0 2.0 0.00 0.00 0.00 80 1019.8
20190324130516 37 0.0 0.0 0.00 0.00 0.00 80 1019.9
20190324130016 37 0.0 0.0 0.00 0.00 0.00 79 1020.1
20190324125516 37 0.0 0.0 0.00 0.00 0.00 79 1020.1
20190324125016 36 0.0 2.0 0.00 0.00 0.00 79 1020.1
20190324124516 36 0.0 0.0 0.00 0.00 0.00 80 1020.0
20190324124015 36 0.0 0.0 0.00 0.00 0.00 79 1020.1
20190324123516 36 0.0 0.0 0.00 0.00 0.00 79 1020.0
20190324123015 36 0.0 0.0 0.00 0.00 0.00 78 1020.2
20190324122516 36 0.0 0.0 0.00 0.00 0.00 78 1020.2
20190324122016 35 0.0 0.0 0.00 0.00 0.00 78 1020.3
20190324121515 35 0.0 0.0 0.00 0.00 0.00 78 1020.2
20190324121015 35 0.0 0.0 0.00 0.00 0.00 77 1020.3
20190324120515 35 0.0 0.0 0.00 0.00 0.00 78 1020.3
20190324120016 35 0.0 0.0 0.00 0.00 0.00 77 1020.3
20190324115515 35 0.0 0.0 0.00 0.00 0.00 77 1020.3
20190324115016 35 0.0 0.0 0.00 0.00 0.00 77 1020.3
20190324114516 35 0.0 0.0 0.00 0.00 0.00 77 1020.3
20190324114016 35 0.0 0.0 0.00 0.00 0.00 77 1020.2
20190324113515 35 0.0 0.0 0.00 0.00 0.00 76 1020.3
20190324113015 35 0.0 0.0 0.00 0.00 0.00 76 1020.2
20190324112515 35 0.0 0.0 0.00 0.00 0.00 76 1020.1
20190324112015 35 0.0 0.0 0.00 0.00 0.00 77 1020.0
20190324111516 35 0.0 0.0 0.00 0.00 0.00 77 1020.0
20190324111015 35 0.0 0.0 0.00 0.00 0.00 77 1019.9
20190324110515 35 0.0 0.0 0.00 0.00 0.00 78 1020.0
20190324110015 35 0.0 0.0 0.00 0.00 0.00 77 1020.1
20190324105515 35 0.0 0.0 0.00 0.00 0.00 77 1020.0
20190324105015 35 0.0 0.0 0.00 0.00 0.00 78 1020.0
20190324104515 35 0.0 0.0 0.00 0.00 0.00 78 1020.1
20190324104016 35 0.0 0.0 0.00 0.00 0.00 78 1020.2
20190324103515 35 0.0 0.0 0.00 0.00 0.00 77 1020.0
20190324103015 35 0.0 0.0 0.00 0.00 0.00 77 1020.0
20190324102515 35 0.0 0.0 0.00 0.00 0.00 78 1019.9
20190324102015 35 0.0 0.0 0.00 0.00 0.00 78 1019.9
20190324101515 35 0.0 0.0 0.00 0.00 0.00 78 1019.9
20190324101016 35 0.0 0.0 0.00 0.00 0.00 79 1019.8
20190324100515 35 0.0 0.0 0.00 0.00 0.00 80 1019.8
20190324100016 34 0.0 0.0 0.00 0.00 0.00 80 1020.0
20190324095515 34 0.0 0.0 0.00 0.00 0.00 80 1020.3
20190324095015 34 0.0 0.0 0.00 0.00 0.00 80 1020.3
20190324094516 34 0.0 0.0 0.00 0.00 0.00 79 1020.5
20190324094015 34 0.0 0.0 0.00 0.00 0.00 78 1020.5
20190324093515 34 0.0 0.0 0.00 0.00 0.00 79 1020.7
20190324093015 34 0.0 0.0 0.00 0.00 0.00 79 1020.7
20190324092515 34 0.0 0.0 0.00 0.00 0.00 80 1020.7
20190324092015 33 0.0 0.0 0.00 0.00 0.00 79 1020.7
20190324091515 33 0.0 0.0 0.00 0.00 0.00 79 1020.8
20190324091015 33 0.0 0.0 0.00 0.00 0.00 80 1020.8
20190324090515 33 0.0 0.0 0.00 0.00 0.00 80 1020.9
20190324090015 33 0.0 0.0 0.00 0.00 0.00 80 1020.9
20190324085515 33 0.0 0.0 0.00 0.00 0.00 80 1020.8
20190324085015 33 0.0 0.0 0.00 0.00 0.00 81 1020.7
20190324084515 33 0.0 0.0 0.00 0.00 0.00 80 1020.8
20190324084015 33 0.0 0.0 0.00 0.00 0.00 80 1020.7
20190324083516 33 0.0 0.0 0.00 0.00 0.00 81 1020.8
20190324083015 33 0.0 0.0 0.00 0.00 0.00 82 1020.7
20190324082515 32 0.0 0.0 0.00 0.00 0.00 81 1020.9
20190324082015 32 0.0 0.0 0.00 0.00 0.00 80 1020.9
20190324081515 32 0.0 0.0 0.00 0.00 0.00 80 1021.0
20190324081016 32 0.0 0.0 0.00 0.00 0.00 80 1021.1
20190324080515 32 0.0 0.0 0.00 0.00 0.00 80 1021.1
20190324080015 32 0.0 0.0 0.00 0.00 0.00 80 1021.2
20190324075515 32 0.0 0.0 0.00 0.00 0.00 80 1021.3
20190324075015 32 0.0 0.0 0.00 0.00 0.00 79 1021.4
20190324074515 31 0.0 0.0 0.00 0.00 0.00 80 1021.4
20190324074015 31 0.0 0.0 0.00 0.00 0.00 81 1021.5
20190324073515 31 0.0 0.0 0.00 0.00 0.00 80 1021.5
20190324073015 31 0.0 0.0 0.00 0.00 0.00 81 1021.5
20190324072515 30 0.0 0.0 0.00 0.00 0.00 81 1021.5
20190324072015 30 0.0 0.0 0.00 0.00 0.00 81 1021.5
20190324071515 30 0.0 0.0 0.00 0.00 0.00 81 1021.5
20190324071015 30 0.0 0.0 0.00 0.00 0.00 81 1021.5
20190324070515 30 0.0 0.0 0.00 0.00 0.00 81 1021.5
20190324070015 30 0.0 0.0 0.00 0.00 0.00 80 1021.5
20190324065515 30 0.0 0.0 0.00 0.00 0.00 80 1021.5
20190324065015 30 0.0 0.0 0.00 0.00 0.00 81 1021.5
20190324064515 30 0.0 0.0 0.00 0.00 0.00 80 1021.6
20190324064015 30 0.0 0.0 0.00 0.00 0.00 80 1021.6
20190324063515 29 0.0 0.0 0.00 0.00 0.00 81 1021.7
20190324063015 29 0.0 0.0 0.00 0.00 0.00 81 1021.8
20190324062515 29 0.0 0.0 0.00 0.00 0.00 81 1021.8
20190324062015 29 0.0 0.0 0.00 0.00 0.00 81 1021.8
20190324061517 29 0.0 0.0 0.00 0.00 0.00 81 1021.8
20190324061017 29 0.0 0.0 0.00 0.00 0.00 81 1021.8
20190324060517 29 0.0 0.0 0.00 0.00 0.00 80 1021.8
20190324060017 29 0.0 0.0 0.00 0.00 0.00 80 1021.8
20190324055517 29 0.0 0.0 0.00 0.00 0.00 80 1021.8
20190324055017 29 0.0 0.0 0.00 0.00 0.00 80 1021.8
20190324054517 29 0.0 0.0 0.00 0.00 0.00 79 1021.9
20190324054020 29 0.0 0.0 0.00 0.00 0.00 79 1021.8
20190324053517 30 0.0 0.0 0.00 0.00 0.00 79 1021.8
20190324053017 30 0.0 0.0 0.00 0.00 0.00 79 1021.7
20190324052517 30 0.0 0.0 0.00 0.00 0.00 79 1021.9
20190324052017 30 0.0 0.0 0.00 0.00 0.00 78 1021.8
20190324051517 30 0.0 0.0 0.00 0.00 0.00 78 1021.8
20190324051017 30 0.0 0.0 0.00 0.00 0.00 78 1022.0
20190324050517 30 0.0 0.0 0.00 0.00 0.00 79 1022.0
20190324050017 30 0.0 0.0 0.00 0.00 0.00 78 1022.0
20190324045517 30 0.0 0.0 0.00 0.00 0.00 78 1022.1
20190324045017 30 0.0 0.0 0.00 0.00 0.00 78 1022.0
20190324044517 30 0.0 0.0 0.00 0.00 0.00 77 1022.0
20190324044016 30 0.0 0.0 0.00 0.00 0.00 77 1022.0
20190324043519 30 0.0 0.0 0.00 0.00 0.00 77 1022.1
20190324043017 30 0.0 0.0 0.00 0.00 0.00 77 1022.1
20190324042517 30 0.0 0.0 0.00 0.00 0.00 77 1022.2
20190324042015 30 0.0 0.0 0.00 0.00 0.00 77 1022.2
20190324041517 30 0.0 0.0 0.00 0.00 0.00 76 1022.1
20190324041016 30 0.0 0.0 0.00 0.00 0.00 76 1022.0
20190324040516 30 0.0 0.0 0.00 0.00 0.00 76 1022.1
20190324040016 31 0.0 0.0 0.00 0.00 0.00 75 1022.0
20190324035515 31 0.0 0.0 0.00 0.00 0.00 75 1022.1
20190324035015 31 0.0 0.0 0.00 0.00 0.00 75 1022.1
20190324034515 31 0.0 0.0 0.00 0.00 0.00 75 1022.1
20190324034015 31 0.0 0.0 0.00 0.00 0.00 75 1022.1
20190324033515 31 0.0 0.0 0.00 0.00 0.00 74 1022.2
20190324033015 31 0.0 0.0 0.00 0.00 0.00 74 1022.2
20190324032515 32 0.0 0.0 0.00 0.00 0.00 73 1022.2
20190324032015 32 0.0 0.0 0.00 0.00 0.00 73 1022.2
20190324031515 32 0.0 0.0 0.00 0.00 0.00 72 1022.2
20190324031015 32 0.0 0.0 0.00 0.00 0.00 72 1022.4
20190324030515 32 0.0 0.0 0.00 0.00 0.00 72 1022.4
20190324030016 33 0.0 0.0 0.00 0.00 0.00 71 1022.4
20190324025515 33 0.0 0.0 0.00 0.00 0.00 70 1022.3
20190324025015 33 0.0 0.0 0.00 0.00 0.00 70 1022.5
20190324024515 33 0.0 0.0 0.00 0.00 0.00 69 1022.6
20190324024015 34 0.0 0.0 0.00 0.00 0.00 68 1022.6
20190324023515 34 0.0 0.0 0.00 0.00 0.00 68 1022.6
20190324023015 34 0.0 0.0 0.00 0.00 0.00 68 1022.6
20190324022515 34 0.0 0.0 0.00 0.00 0.00 68 1022.8
20190324022015 34 0.0 0.0 0.00 0.00 0.00 67 1022.9
20190324021515 35 0.0 0.0 0.00 0.00 0.00 67 1022.9
20190324021015 35 0.0 0.0 0.00 0.00 0.00 66 1022.8
20190324020515 35 0.0 0.0 0.00 0.00 0.00 66 1022.8
20190324020015 35 0.0 0.0 0.00 0.00 0.00 65 1022.7
20190324015515 36 0.0 0.0 0.00 0.00 0.00 64 1022.8
20190324015015 36 0.0 0.0 0.00 0.00 0.00 63 1022.7
20190324014515 36 0.0 0.0 0.00 0.00 0.00 63 1022.8
20190324014015 37 0.0 0.0 0.00 0.00 0.00 62 1022.7
20190324013515 37 0.0 0.0 0.00 0.00 0.00 61 1022.6
20190324013017 37 0.0 0.0 0.00 0.00 0.00 61 1022.7
20190324012517 37 0.0 0.0 0.00 0.00 0.00 61 1022.7
20190324012018 38 0.0 0.0 0.00 0.00 0.00 59 1022.7
20190324011517 38 0.0 0.0 0.00 0.00 0.00 58 1022.8
20190324011017 39 0.0 0.0 0.00 0.00 0.00 57 1022.7
20190324010517 39 0.0 0.0 0.00 0.00 0.00 56 1022.7
20190324010017 40 0.0 0.0 0.00 0.00 0.00 56 1022.7
20190324005520 40 0.0 0.0 0.00 0.00 0.00 55 1022.5
20190324005017 41 0.0 0.0 0.00 0.00 0.00 54 1022.6
20190324004517 41 0.0 0.0 0.00 0.00 0.00 52 1022.6
20190324004017 41 0.0 0.0 0.00 0.00 0.00 51 1022.5
20190324003517 42 0.0 0.0 0.00 0.00 0.00 51 1022.6
20190324003017 42 0.0 0.0 0.00 0.00 0.00 49 1022.6
20190324002517 43 0.0 0.0 0.00 0.00 0.00 48 1022.6
20190324002017 43 0.0 0.0 0.00 0.00 0.00 48 1022.6
20190324001517 44 0.0 0.0 0.00 0.00 0.00 46 1022.6
20190324001017 45 0.0 0.0 0.00 0.00 0.00 46 1022.6
20190324000519 45 0.0 0.0 0.00 0.00 0.00 44 1022.7
20190324000016 46 0.0 0.0 0.00 0.00 0.00 43 1022.7
20190323235516 47 0.0 0.0 0.00 0.00 0.00 41 1022.8
20190323235017 47 0.0 0.0 0.00 0.00 0.00 40 1022.8
20190323234517 48 0.0 1.0 0.00 0.00 0.00 40 1022.8
20190323234017 48 292 1.0 2.0 0.00 0.00 0.00 40 1022.8
20190323233517 48 292 1.0 2.0 0.00 0.00 0.00 40 1022.8
20190323233016 48 292 1.0 2.0 0.00 0.00 0.00 40 1022.9
20190323232516 48 292 1.0 2.0 0.00 0.00 0.00 41 1023.0
20190323232017 49 292 2.0 3.0 0.00 0.00 0.00 40 1022.9
20190323231516 49 270 1.0 3.0 0.00 0.00 0.00 40 1022.9
20190323231017 49 112 1.0 2.0 0.00 0.00 0.00 39 1022.8
20190323230517 49 112 1.0 3.0 0.00 0.00 0.00 38 1022.7
20190323230016 49 292 1.0 3.0 0.00 0.00 0.00 38 1022.8
20190323225516 49 292 2.0 7.0 0.00 0.00 0.00 38 1022.9
20190323225016 50 315 2.0 3.0 0.00 0.00 0.00 38 1022.9
20190323224517 50 270 2.0 4.0 0.00 0.00 0.00 37 1022.9
20190323224016 50 315 2.0 4.0 0.00 0.00 0.00 38 1022.8
20190323223516 50 315 1.0 3.0 0.00 0.00 0.00 38 1022.9
20190323223016 50 292 2.0 5.0 0.00 0.00 0.00 37 1022.8
20190323222516 50 292 2.0 6.0 0.00 0.00 0.00 37 1022.8
20190323222017 50 292 3.0 4.0 0.00 0.00 0.00 36 1022.7
20190323221516 50 270 1.0 6.0 0.00 0.00 0.00 36 1022.8
20190323221017 50 292 2.0 4.0 0.00 0.00 0.00 35 1022.8
20190323220516 50 112 2.0 4.0 0.00 0.00 0.00 37 1022.9
20190323220017 50 315 2.0 3.0 0.00 0.00 0.00 37 1022.8
20190323215516 50 292 3.0 4.0 0.00 0.00 0.00 35 1022.9
20190323215016 50 292 2.0 4.0 0.00 0.00 0.00 35 1023.0
20190323214516 51 337 1.0 4.0 0.00 0.00 0.00 37 1023.0
20190323214017 51 292 2.0 9.0 0.00 0.00 0.00 37 1023.1
20190323213516 51 292 3.0 6.0 0.00 0.00 0.00 38 1023.2
20190323213017 51 270 2.0 4.0 0.00 0.00 0.00 37 1023.2
20190323212516 51 292 3.0 6.0 0.00 0.00 0.00 37 1023.2
20190323212016 51 292 2.0 6.0 0.00 0.00 0.00 38 1023.2
20190323211516 50 292 3.0 8.0 0.00 0.00 0.00 37 1023.1